CW5456 Weather Reports


Display with metric or nautical units.
time (UTC)temp
F
wind
direction
speed
MPH
gust
MPH
rain 1hr
in
rain 24hr
in
rain mn
in
humidity
%
barometer
mb
20260503220043 62 297 6.0 11.0 0.00 0.00 0.00 77 1009.8
20260503215545 62 301 5.0 14.0 0.00 0.00 0.00 77 1009.9
20260503215043 62 302 11.0 14.0 0.00 0.00 0.00 76 1010.0
20260503214543 62 277 9.0 13.0 0.00 0.00 0.00 76 1010.0
20260503214043 62 281 8.0 12.0 0.00 0.00 0.00 77 1010.1
20260503213543 61 303 3.0 8.0 0.00 0.00 0.00 80 1010.1
20260503213043 61 307 4.0 8.0 0.00 0.00 0.00 80 1010.1
20260503212543 61 307 2.0 9.0 0.00 0.00 0.00 80 1010.2
20260503212043 61 306 5.0 11.0 0.00 0.00 0.00 80 1010.2
20260503211543 61 340 8.0 11.0 0.00 0.00 0.00 80 1010.3
20260503211043 61 275 10.0 10.0 0.00 0.00 0.00 79 1010.3
20260503210043 62 272 7.0 8.0 0.00 0.00 0.00 77 1010.4
20260503205544 63 274 4.0 10.0 0.00 0.00 0.00 75 1010.4
20260503204543 62 277 4.0 11.0 0.00 0.00 0.00 75 1010.5
20260503204042 62 306 4.0 11.0 0.00 0.00 0.00 76 1010.5
20260503203543 62 300 11.0 11.0 0.00 0.00 0.00 77 1010.5
20260503203042 61 278 9.0 11.0 0.00 0.00 0.00 79 1010.6
20260503202542 61 283 7.0 10.0 0.00 0.00 0.00 79 1010.5
20260503202042 61 302 8.0 10.0 0.00 0.00 0.00 78 1010.6
20260503201543 61 301 6.0 11.0 0.00 0.00 0.00 79 1010.7
20260503201043 61 298 9.0 11.0 0.00 0.00 0.00 79 1010.7
20260503200042 60 277 9.0 13.0 0.00 0.00 0.00 80 1010.9
20260503195542 60 279 12.0 13.0 0.00 0.00 0.00 80 1011.0
20260503195042 60 297 4.0 10.0 0.00 0.00 0.00 82 1011.1
20260503194542 60 285 9.0 10.0 0.00 0.00 0.00 80 1011.2
20260503194042 61 282 4.0 8.0 0.00 0.00 0.00 79 1011.3
20260503193542 61 283 0.0 7.0 0.00 0.00 0.00 78 1011.2
20260503192542 61 285 0.0 7.0 0.00 0.00 0.00 81 1011.3
20260503192042 60 286 4.0 8.0 0.00 0.00 0.00 80 1011.4
20260503191042 60 275 0.0 10.0 0.00 0.00 0.00 80 1011.5
20260503190541 60 297 6.0 10.0 0.00 0.00 0.00 80 1011.5
20260503190041 60 302 4.0 10.0 0.00 0.00 0.00 80 1011.5
20260503185541 60 270 6.0 10.0 0.00 0.00 0.00 81 1011.6
20260503184041 59 273 4.0 12.0 0.00 0.00 0.00 83 1011.7
20260503183541 59 271 10.0 10.0 0.00 0.00 0.00 84 1011.7
20260503183042 59 279 2.0 9.0 0.00 0.00 0.00 85 1011.8
20260503182041 58 299 5.0 13.0 0.00 0.00 0.00 84 1011.9
20260503181541 59 313 8.0 15.0 0.00 0.00 0.00 83 1011.9
20260503181041 59 318 9.0 16.0 0.00 0.00 0.00 83 1011.9
20260503180541 59 345 12.0 16.0 0.00 0.00 0.00 83 1012.0
20260503180040 58 335 13.0 15.0 0.00 0.00 0.00 84 1012.0
20260503175541 58 314 10.0 15.0 0.00 0.00 0.00 84 1012.0
20260503175040 58 305 10.0 13.0 0.00 0.00 0.00 84 1012.0
20260503174041 58 301 9.0 12.0 0.00 0.00 0.00 84 1012.2
20260503173540 58 266 8.0 10.0 0.00 0.00 0.00 84 1012.2
20260503173041 58 250 4.0 10.0 0.00 0.00 0.00 84 1012.2
20260503172540 58 277 8.0 10.0 0.00 0.00 0.00 85 1012.2
20260503172040 58 301 8.0 10.0 0.00 0.00 0.00 85 1012.2
20260503171540 58 309 6.0 10.0 0.00 0.00 0.00 84 1012.2
20260503171040 58 317 5.0 10.0 0.00 0.00 0.00 84 1012.3
20260503170540 58 329 6.0 9.0 0.00 0.00 0.00 84 1012.3
20260503131037 55 345 3.0 6.0 0.00 0.00 0.00 84 1012.1
20260503130537 55 345 5.0 6.0 0.00 0.00 0.00 84 1012.1
20260503110536 53 306 0.0 3.0 0.00 0.00 0.00 87 1012.3
20260503081534 56 319 4.0 5.0 0.00 0.00 0.00 82 1012.4
20260503081033 56 319 0.0 3.0 0.00 0.00 0.00 82 1012.3
20260503072532 56 319 0.0 1.0 0.00 0.00 0.00 80 1012.1
20260503072032 56 319 0.0 1.0 0.00 0.00 0.00 80 1012.2
20260503071534 56 319 0.0 0.0 0.00 0.00 0.00 80 1012.0
20260503071033 56 319 0.0 0.0 0.00 0.00 0.00 81 1012.1
20260503055101 57 318 0.0 2.0 0.00 0.00 0.00 80 1011.9
20260503054102 58 318 0.0 9.0 0.00 0.00 0.00 78 1011.9
20260503053602 58 318 3.0 9.0 0.00 0.00 0.00 77 1011.9
20260503053101 58 316 6.0 9.0 0.00 0.00 0.00 77 1012.0
20260503052602 58 329 9.0 9.0 0.00 0.00 0.00 77 1011.9
20260503052101 58 340 1.0 5.0 0.00 0.00 0.00 77 1011.9
20260503051601 59 340 2.0 6.0 0.00 0.00 0.00 77 1012.0
20260503051101 59 340 5.0 8.0 0.00 0.00 0.00 77 1012.0
20260503050601 59 340 3.0 8.0 0.00 0.00 0.00 76 1012.0
20260503045600 59 340 8.0 10.0 0.00 0.00 0.00 77 1011.9
20260503045101 58 345 8.0 10.0 0.00 0.00 0.00 77 1011.8
20260503044600 58 358 7.0 9.0 0.00 0.00 0.00 78 1011.8
20260503044101 58 358 0.0 4.0 0.00 0.00 0.00 77 1011.8
20260503042601 60 358 0.0 5.0 0.00 0.00 0.00 74 1011.7
20260503042101 60 358 2.0 8.0 0.00 0.00 0.00 74 1011.6
20260503041600 60 358 3.0 8.0 0.00 0.00 0.00 73 1011.6
20260503041100 60 358 0.0 8.0 0.00 0.00 0.00 73 1011.5
20260503040600 60 358 7.0 8.0 0.00 0.00 0.00 74 1011.5
20260503040100 60 358 3.0 5.0 0.00 0.00 0.00 74 1011.5
20260503035601 60 358 1.0 5.0 0.00 0.00 0.00 74 1011.4
20260503035100 60 358 4.0 8.0 0.00 0.00 0.00 74 1011.4
20260503034600 60 358 0.0 10.0 0.00 0.00 0.00 74 1011.4
20260503034100 60 358 7.0 11.0 0.00 0.00 0.00 73 1011.2
20260503033600 60 358 5.0 11.0 0.00 0.00 0.00 73 1011.2
20260503033100 60 358 7.0 9.0 0.00 0.00 0.00 73 1011.1
20260503032600 60 358 7.0 10.0 0.00 0.00 0.00 73 1011.1
20260503032100 61 356 5.0 10.0 0.00 0.00 0.00 72 1011.0
20260503031559 61 345 10.0 10.0 0.00 0.00 0.00 72 1011.0
20260503031059 61 336 4.0 6.0 0.00 0.00 0.00 71 1011.0
20260503030600 61 321 2.0 6.0 0.00 0.00 0.00 71 1011.0
20260503030059 62 321 5.0 5.0 0.00 0.00 0.00 71 1010.9
20260503025559 61 322 1.0 10.0 0.00 0.00 0.00 71 1010.9
20260503025059 61 321 5.0 10.0 0.00 0.00 0.00 72 1010.9
20260503024600 60 345 9.0 10.0 0.00 0.00 0.00 73 1010.9
20260503024100 60 345 0.0 6.0 0.00 0.00 0.00 74 1011.0
20260503023559 60 345 1.0 8.0 0.00 0.00 0.00 75 1011.0
20260503023059 60 345 5.0 11.0 0.00 0.00 0.00 75 1010.9
20260503022559 60 345 3.0 11.0 0.00 0.00 0.00 75 1010.9
20260503022059 60 336 4.0 9.0 0.00 0.00 0.00 76 1011.0
20260503021559 60 335 5.0 11.0 0.00 0.00 0.00 76 1011.0
20260503020558 59 306 5.0 8.0 0.00 0.00 0.00 78 1011.0
20260503015559 60 310 6.0 15.0 0.00 0.00 0.00 76 1011.1
20260503015059 60 316 11.0 17.0 0.00 0.00 0.00 76 1011.1
20260503014559 60 296 14.0 18.0 0.00 0.00 0.00 76 1011.1
20260503014059 59 302 13.0 18.0 0.00 0.00 0.00 79 1011.2
20260503013558 58 274 2.0 13.0 0.00 0.00 0.00 81 1011.2
20260503013058 59 274 5.0 13.0 0.00 0.00 0.00 80 1011.2
20260503012559 59 300 9.0 12.0 0.00 0.00 0.00 80 1011.3
20260503011558 60 345 9.0 18.0 0.00 0.00 0.00 78 1011.4
20260503011058 60 350 15.0 18.0 0.00 0.00 0.00 79 1011.3
20260503010558 59 350 16.0 17.0 0.00 0.00 0.00 80 1011.4
20260503010058 59 350 14.0 16.0 0.00 0.00 0.00 81 1011.4
20260503005057 59 283 11.0 11.0 0.00 0.00 0.00 80 1011.4
20260503004558 59 285 9.0 9.0 0.00 0.00 0.00 80 1011.5
20260503004058 59 287 3.0 11.0 0.00 0.00 0.00 81 1011.5
20260503003557 59 296 4.0 12.0 0.00 0.00 0.00 81 1011.4
20260503003057 59 340 9.0 14.0 0.00 0.00 0.00 80 1011.4
20260503002057 60 340 9.0 14.0 0.00 0.00 0.00 80 1011.5
20260503001058 59 345 9.0 14.0 0.00 0.00 0.00 80 1011.6
20260503000557 59 306 11.0 12.0 0.00 0.00 0.00 80 1011.6
20260503000057 60 304 9.0 12.0 0.00 0.00 0.00 80 1011.6
20260502235557 60 306 9.0 12.0 0.00 0.00 0.00 80 1011.7
20260502235057 60 283 5.0 10.0 0.00 0.00 0.00 80 1011.7
20260502234557 60 293 4.0 10.0 0.00 0.00 0.00 81 1011.8
20260502233557 60 298 0.0 6.0 0.00 0.00 0.00 82 1012.0
20260502233057 60 299 0.0 12.0 0.00 0.00 0.00 82 1012.0
20260502232557 59 292 5.0 12.0 0.00 0.00 0.00 82 1012.1
20260502231557 58 298 6.0 9.0 0.00 0.00 0.00 85 1012.3
20260502231057 58 306 6.0 6.0 0.00 0.00 0.00 85 1012.3
20260502230058 58 309 2.0 9.0 0.00 0.00 0.00 85 1012.4
20260502225557 58 308 4.0 13.0 0.00 0.00 0.00 86 1012.6
20260502225056 58 311 8.0 13.0 0.00 0.00 0.00 85 1012.7
20260502224556 58 304 4.0 8.0 0.00 0.00 0.00 85 1012.8
20260502224057 58 318 4.0 9.0 0.00 0.00 0.00 86 1012.9
20260502223056 58 350 2.0 8.0 0.00 0.00 0.00 86 1013.0
20260502222556 58 350 1.0 13.0 0.00 0.00 0.00 87 1013.1
20260502222056 58 350 8.0 15.0 0.00 0.00 0.00 86 1013.1
20260502221556 58 350 12.0 15.0 0.00 0.00 0.00 86 1013.2
20260502221055 57 315 12.0 17.0 0.00 0.00 0.00 86 1013.2
20260502220555 57 345 11.0 17.0 0.00 0.00 0.00 86 1013.2